Location: Caltech
(34.1382°N, 118.1253°W)
Time: 12:05:50
(UTC-07:00)

Iridium 95 - Visible Passes

Search period start: 24 June 2017 00:00
Search period end: 04 July 2017 00:00
Orbit: 775 x 780 km, 86.4° (Epoch: 23 June)

Date Brightness Start Highest point End Pass type
(mag) Time Alt. Az. Time Alt. Az. Time Alt. Az.
24 Jun 7.7 00:39:21 16° ENE 00:39:21 16° ENE 00:41:42 10° NE visible
24 Jun 6.5 02:19:49 38° NW 02:19:49 38° NW 02:23:39 10° NNW visible
25 Jun 6.2 01:46:26 52° N 01:46:26 52° N 01:50:22 10° N visible
26 Jun 6.6 01:13:02 39° NE 01:13:02 39° NE 01:16:41 10° NNE visible
26 Jun 7.6 02:53:31 15° WNW 02:53:31 15° WNW 02:55:37 10° NW visible
27 Jun 7.3 00:39:39 23° ENE 00:39:39 23° ENE 00:42:33 10° NNE visible
27 Jun 7.0 02:20:07 26° WNW 02:20:07 26° WNW 02:23:23 10° NNW visible
28 Jun 7.9 00:06:14 12° ENE 00:06:14 12° ENE 00:07:26 10° NE visible
28 Jun 6.5 01:46:43 42° NNW 01:46:43 42° NNW 01:50:22 10° N visible
29 Jun 6.4 01:13:17 45° NNE 01:13:17 45° NNE 01:16:56 10° N visible
30 Jun 7.0 00:39:53 30° NE 00:39:53 30° NE 00:43:06 10° NNE visible
30 Jun 7.5 02:20:21 18° WNW 02:20:21 18° WNW 02:22:52 10° NNW visible
01 Jul 7.6 00:06:27 18° ENE 00:06:27 18° ENE 00:08:42 10° NE visible
01 Jul 6.9 01:46:55 31° NW 01:46:55 31° NW 01:50:14 10° NNW visible
02 Jul 6.5 01:13:30 43° NNW 01:13:30 43° NNW 01:17:01 10° N visible
03 Jul 6.7 00:40:03 38° NNE 00:40:03 38° NNE 00:43:26 10° N visible
03 Jul 7.9 02:20:32 12° WNW 02:20:32 12° WNW 02:21:48 10° NW visible
